Theta_e
305 307 308 310 311 307 303 295 286 295 295 285 285 284 286 287 285 288 286 284 284 282 282 279 280 280 281 287 285 278 281 278 272 275 280 280 279 279 277 266 267 273 270 271
303 305 306 309 311 308 299 290 286 295 295 282 281 285 284 285 285 286 285 282 284 283 280 277 281 281 285 287 284 279 281 274 267 274 277 280 277 280 281 273 271 268 262 270
301 303 305 307 310 310 299 290 283 285 288 287 287 284 284 283 289 287 288 284 284 281 277 280 277 281 283 285 285 286 283 276 270 270 273 275 274 276 279 272 264 265 271 272
300 302 304 306 308 310 300 292 286 286 280 282 284 287 286 283 282 286 287 283 282 282 275 278 277 280 280 283 286 283 281 270 272 273 276 275 275 275 276 272 271 267 273 269
299 301 303 305 307 310 300 289 286 286 285 286 285 286 283 284 284 283 282 282 284 283 279 281 278 280 280 279 282 280 282 271 275 269 275 275 274 276 276 276 275 275 276 275
298 300 302 304 306 308 298 294 293 293 287 285 284 284 285 285 285 285 286 285 284 282 284 284 285 284 284 282 279 278 277 273 268 267 274 273 267 274 275 273 274 272 269 276
298 299 301 303 305 306 301 295 294 290 286 286 285 287 287 285 285 284 284 286 285 283 288 286 283 282 282 282 280 283 275 272 271 266 268 263 277 282 280 276 278 278 277 279
298 299 300 302 304 305 303 298 297 293 286 287 285 287 286 286 286 284 284 284 284 287 284 281 278 273 270 270 278 279 280 275 266 261 261 273 276 277 276 274 275 282 281 283
298 298 300 301 303 305 302 299 300 298 287 286 288 286 286 284 283 281 281 284 285 284 282 282 276 274 270 265 267 279 281 278 269 261 261 261 276 279 283 283 272 284 284 284
297 298 299 300 302 303 301 299 301 299 291 291 290 286 285 287 285 282 280 280 281 282 280 278 276 274 270 268 266 267 271 272 266 264 262 270 279 282 283 269 275 285 285 283
295 297 299 299 302 303 301 298 301 300 291 290 292 291 286 285 286 280 281 281 280 278 278 280 278 275 271 272 274 272 270 268 266 265 264 265 281 280 276 281 282 283 283 282
297 298 299 299 300 300 301 295 301 300 292 287 287 288 289 290 292 285 284 285 281 282 281 282 283 274 269 271 269 277 271 277 273 274 274 280 283 281 283 284 282 281 281 281
294 298 298 298 299 299 299 297 299 292 285 285 287 286 288 292 291 293 283 284 286 285 284 285 282 277 276 269 270 273 274 278 274 275 279 280 280 282 282 282 282 283 283 282
294 294 296 295 296 299 298 296 297 297 289 284 282 287 285 288 290 290 289 286 283 283 284 281 280 277 279 276 276 275 276 277 273 274 278 279 280 280 281 281 282 284 283 283
292 293 294 296 295 296 297 296 298 299 293 284 280 283 283 287 288 287 288 286 283 282 279 279 278 279 275 274 273 272 276 275 274 277 280 281 280 280 281 280 280 281 282 281
292 293 293 294 294 295 293 285 295 298 291 284 279 282 281 284 285 285 285 284 283 283 282 280 281 279 278 276 270 279 279 279 282 283 279 280 278 278 279 278 278 279 279 280
292 293 293 294 294 293 287 286 293 300 293 282 276 276 281 283 283 282 280 281 279 282 280 278 280 277 277 275 277 283 281 281 281 280 278 278 278 278 279 280 278 276 274 275
292 293 293 293 293 293 287 290 295 299 287 285 278 274 277 282 279 277 282 280 281 279 280 276 277 274 270 271 274 283 284 281 279 279 279 279 275 274 272 271 271 270 272 272
291 292 292 291 287 284 285 297 296 298 288 279 276 274 274 281 278 279 280 283 277 277 277 275 277 270 270 275 278 282 281 279 278 273 271 267 270 271 268 268 266 270 271 271
291 288 284 280 285 294 297 292 287 285 283 284 281 276 273 279 278 279 278 280 279 274 272 272 268 272 278 277 281 284 282 282 273 270 270 264 267 270 271 271 270 274 273 273
286 281 281 285 292 290 285 283 282 279 276 280 280 273 275 278 275 273 277 277 277 272 268 267 269 273 275 283 285 288 285 282 279 281 276 277 273 273 274 270 272 271 272 274
285 285 286 284 283 284 281 280 281 280 274 276 276 277 276 276 278 273 275 274 271 273 267 266 266 275 281 276 281 285 284 285 282 280 280 275 274 273 273 273 274 272 273 269
285 282 278 279 279 277 278 276 273 272 275 276 275 273 274 275 276 271 269 267 266 264 263 266 271 279 274 277 277 275 267 269 276 279 278 275 275 273 273 272 271 273 272 271
280 277 273 275 277 280 281 279 276 274 276 279 278 276 273 271 269 269 270 260 263 260 260 266 272 278 277 273 271 268 268 268 269 273 273 275 275 275 272 272 273 274 272 271
278 278 274 277 277 273 278 276 276 275 283 280 275 273 273 266 267 264 262 259 260 265 268 272 279 276 271 270 267 269 267 266 266 264 270 272 272 273 273 271 272 273 270 271
278 279 275 275 275 274 276 275 279 284 284 279 277 272 274 268 267 262 266 268 267 271 271 275 276 273 271 269 266 265 265 264 265 266 267 267 268 271 271 267 267 268 271 271
279 276 274 274 276 279 280 281 282 286 286 276 278 272 269 269 265 264 269 269 274 276 275 274 273 273 272 267 267 267 264 263 265 266 264 264 263 264 267 269 264 261 262 263
Wind_Speed
22 19 18 14 8 22 7 3 2 2 2 4 2 4 6 1 3 1 2 2 2 5 6 4 2 3 1 5 7 4 3 1 5 3 5 4 4 4 5 6 5 4 2 12
24 21 18 17 11 22 6 5 3 2 2 5 4 2 2 1 4 3 3 4 1 2 5 1 2 3 3 4 5 5 5 2 5 3 4 1 5 6 5 5 3 7 4 11
26 24 20 18 14 25 4 5 4 1 1 1 5 4 4 4 3 0 3 2 4 3 1 3 4 5 3 3 1 5 1 1 7 7 3 3 6 6 10 8 4 5 13 14
28 26 24 21 17 27 3 4 5 6 7 6 5 10 8 8 7 2 5 4 7 6 4 3 4 4 5 3 6 4 3 4 5 7 16 9 14 15 12 11 12 9 13 8
29 28 26 23 20 26 7 6 5 1 3 7 14 11 10 11 5 10 7 6 6 8 5 5 8 8 6 6 7 6 4 4 3 8 7 8 14 13 15 17 16 16 21 28
32 29 28 24 23 24 8 2 1 6 11 6 10 9 11 15 13 8 3 7 4 8 6 6 5 3 6 7 8 7 6 2 3 8 5 8 8 8 14 6 6 8 8 15
31 31 28 26 26 24 3 4 4 4 8 9 9 10 14 12 16 7 3 2 6 4 14 11 8 11 9 6 3 5 5 3 2 6 6 4 6 4 5 10 6 15 10 11
31 30 29 27 27 26 11 3 4 4 3 10 7 7 9 7 4 3 5 2 2 5 1 2 3 3 5 4 4 2 3 3 1 1 3 10 5 5 5 7 9 14 17 14
32 28 28 29 28 26 13 3 2 4 7 12 12 9 9 6 5 4 4 2 3 1 1 1 6 7 5 3 2 4 4 3 4 2 2 7 4 4 2 4 7 6 8 6
23 27 30 27 27 25 14 4 10 4 8 7 10 7 11 8 5 5 6 6 3 3 3 5 4 5 1 6 11 8 4 3 5 4 4 13 8 7 2 7 9 7 6 6
27 30 29 23 29 25 15 7 10 9 2 2 7 8 10 5 6 8 9 6 2 3 6 6 5 4 7 3 7 9 11 10 6 4 3 12 8 4 8 6 2 7 6 6
29 28 27 23 18 12 12 8 7 5 3 3 4 1 2 2 11 10 13 1 6 7 5 6 3 2 2 4 5 4 5 10 9 14 12 2 12 4 7 0 4 5 5 5
13 14 15 14 16 15 18 3 7 4 4 1 3 3 2 4 4 4 10 2 6 7 1 3 1 4 5 5 8 6 5 6 3 2 8 18 13 10 9 6 7 6 6 8
12 8 11 3 4 12 6 7 3 1 3 4 3 1 2 1 2 4 3 10 8 6 2 2 3 4 3 4 3 4 5 9 6 8 14 13 16 12 12 10 9 8 8 8
8 11 5 10 2 1 2 3 6 7 1 3 4 5 2 2 6 8 9 13 9 3 3 3 5 1 2 0 2 5 7 10 9 10 10 5 4 4 4 9 9 11 10 7
11 11 3 4 6 1 1 1 7 12 5 5 5 3 2 4 9 11 10 5 4 3 4 3 2 1 2 4 6 8 15 12 13 12 3 4 2 3 4 4 6 6 8 8
11 11 5 6 6 3 3 4 2 12 5 5 5 5 3 5 4 3 3 2 2 2 2 3 2 2 3 4 11 4 12 16 14 7 4 6 6 7 9 6 3 4 3 4
10 12 5 5 8 7 5 12 16 9 6 1 6 4 4 3 3 4 1 3 2 1 2 1 2 2 1 11 5 13 16 12 10 11 12 7 3 4 4 4 4 4 5 5
10 9 4 1 2 3 5 17 16 6 5 7 4 9 6 4 3 3 2 2 2 1 2 2 3 3 13 9 13 11 12 11 8 2 3 4 6 6 5 5 4 7 7 6
9 4 1 3 6 13 6 6 10 7 3 3 4 4 6 6 4 3 4 2 3 4 4 3 4 10 5 8 13 15 11 15 11 6 4 2 7 11 10 12 6 8 8 7
2 4 6 3 12 6 4 8 8 3 4 4 5 3 11 2 4 4 1 4 4 3 3 4 5 9 8 17 30 25 16 11 18 13 5 12 8 9 13 10 11 9 9 11
3 2 3 0 3 7 9 8 7 5 8 5 9 6 5 3 4 5 2 3 1 4 3 1 7 8 14 2 7 14 9 15 16 16 15 9 10 8 9 9 10 12 10 7
1 4 4 5 8 11 8 11 4 7 5 7 9 9 5 3 3 5 4 5 4 2 2 8 8 10 4 6 5 4 2 2 5 10 11 8 8 8 9 9 6 9 9 9
4 3 5 9 11 6 2 9 7 5 11 17 11 8 6 3 5 4 7 1 3 2 3 12 6 11 6 5 2 4 4 7 6 6 7 10 11 11 9 8 8 11 11 11
4 4 10 9 1 4 2 5 8 3 14 16 7 6 6 3 7 4 6 4 5 9 9 7 4 4 1 3 2 4 4 4 5 4 7 8 9 10 10 9 8 9 8 11
3 8 6 2 4 2 3 3 15 13 15 5 5 6 5 3 7 6 10 10 10 7 6 5 3 4 4 2 3 4 2 3 3 4 6 6 8 10 8 6 6 7 9 11
6 4 2 3 7 5 6 10 15 14 14 6 6 7 6 7 4 2 6 8 6 4 3 1 1 2 5 5 6 5 4 4 5 4 4 4 4 5 6 8 5 4 4 5
Wind_Direction
292 285 291 278 298 155 106 118 161 5 42 91 242 192 204 308 153 226 263 278 126 178 169 172 191 191 126 154 137 140 55 183 265 215 106 69 312 220 171 132 263 244 208 267
290 283 274 270 214 170 134 124 97 351 36 166 205 232 187 270 154 211 200 232 157 100 190 142 133 117 31 124 144 161 181 228 320 331 20 111 232 195 214 100 88 222 154 261
283 283 267 265 218 191 109 126 138 101 357 342 162 154 199 203 184 174 198 139 115 123 99 27 180 154 175 139 95 93 114 244 201 201 193 96 230 201 196 142 162 234 230 278
277 277 269 251 241 198 158 185 180 182 175 196 200 171 171 181 178 248 197 217 210 169 149 140 211 146 116 169 153 181 230 224 214 236 264 265 261 250 237 211 204 189 269 291
271 266 266 248 235 206 224 155 154 81 173 133 178 189 196 186 139 172 222 215 158 210 189 199 192 138 170 185 166 181 194 263 11 293 242 236 259 247 232 234 240 253 263 278
270 259 259 253 239 213 205 104 9 137 158 162 175 184 190 201 142 231 168 185 146 206 205 83 58 57 116 140 149 185 156 217 68 269 341 311 304 229 198 200 186 174 202 234
263 255 252 250 239 221 183 174 144 145 210 186 192 172 192 185 195 150 111 89 152 122 106 92 49 43 46 73 57 154 137 147 109 273 342 353 236 192 183 196 204 210 262 268
262 251 249 246 241 226 242 170 196 146 182 189 173 161 173 105 85 91 125 75 51 161 141 101 90 1 26 334 6 77 126 170 168 148 258 288 290 156 174 163 272 215 225 253
258 244 245 243 238 228 227 233 184 196 134 210 134 161 162 151 140 109 92 58 46 71 172 159 210 208 186 207 25 291 184 74 124 98 187 247 246 153 70 143 296 179 175 214
273 245 242 236 241 229 221 225 212 170 222 168 144 158 174 149 138 120 125 151 107 27 157 200 209 233 184 173 167 171 163 179 199 205 252 282 243 155 194 83 242 170 180 186
295 253 240 230 244 222 207 226 215 218 167 199 157 159 143 136 155 150 141 115 200 142 197 205 210 193 210 150 161 176 168 159 191 172 198 280 144 76 178 212 100 164 186 184
282 223 217 227 224 218 251 227 193 207 202 144 71 58 100 312 161 125 180 110 149 151 174 210 191 168 118 178 224 164 224 195 179 192 212 227 196 216 212 13 167 195 186 194
319 230 202 213 209 205 240 201 153 81 115 71 128 185 61 60 30 133 132 192 158 177 89 126 171 215 138 177 236 191 232 202 235 76 247 236 234 255 249 226 226 200 191 186
299 296 220 179 213 202 250 209 152 187 158 139 156 296 98 38 92 53 46 120 76 93 108 132 182 202 149 222 230 188 195 134 186 262 278 281 264 232 232 231 213 211 196 188
258 280 265 241 143 112 314 316 199 211 186 117 132 115 351 72 108 107 113 120 115 132 147 165 214 160 118 193 21 231 192 179 180 230 217 198 236 182 198 205 212 205 187 199
287 285 237 249 263 138 33 259 206 194 161 142 128 63 73 63 99 104 116 93 84 120 158 183 212 29 183 216 238 235 195 209 214 242 151 208 164 194 174 189 215 199 194 191
283 294 289 223 259 220 213 244 337 190 130 122 122 102 92 122 96 84 83 44 99 112 137 205 183 204 213 250 246 187 213 225 230 226 121 272 189 231 195 175 200 153 134 153
283 289 282 267 288 286 262 254 262 230 102 128 120 109 142 213 122 108 139 109 137 121 126 108 204 97 222 253 245 237 228 221 227 215 205 217 135 105 135 121 127 128 171 160
272 299 1 283 176 214 218 241 181 231 159 158 147 143 146 164 88 114 120 179 145 91 229 209 139 206 228 216 219 227 212 192 206 207 174 150 192 203 191 167 186 173 197 181
288 88 178 244 217 209 185 168 178 211 164 161 97 109 128 150 157 118 123 215 151 179 221 93 207 251 256 214 236 237 207 202 144 121 255 188 245 211 201 205 201 191 188 183
148 210 215 245 349 207 196 198 186 139 111 133 101 109 127 274 126 124 319 158 148 191 226 151 252 259 237 212 224 236 217 189 201 209 191 186 176 185 203 204 202 188 185 197
201 322 301 179 253 182 228 165 157 176 152 130 128 138 118 142 123 105 196 123 116 202 159 168 261 251 250 354 248 250 218 212 212 207 214 191 197 186 189 191 188 191 194 169
121 223 210 167 233 213 225 157 110 117 166 145 152 126 124 116 73 79 115 126 191 78 108 235 232 260 252 256 261 278 264 253 210 207 215 185 195 174 179 209 172 163 180 185
232 224 236 217 226 196 221 129 169 137 131 136 132 116 124 135 85 153 116 268 96 90 240 238 234 238 251 261 235 136 235 221 220 216 190 202 194 199 193 193 170 162 188 189
233 179 242 217 318 341 60 87 102 105 146 136 117 79 90 93 104 66 117 68 224 210 233 233 246 274 291 269 270 246 241 231 231 204 212 213 196 196 208 191 180 173 162 180
214 240 265 324 360 251 80 136 123 145 141 117 73 114 91 108 125 131 203 144 214 233 220 247 339 322 302 348 303 277 288 297 274 243 222 204 196 204 214 150 176 174 172 186
230 256 124 224 269 194 156 159 141 159 148 148 124 106 166 115 97 248 185 208 215 204 253 235 112 322 311 332 310 318 307 269 234 219 206 209 204 162 158 176 204 158 135 153